Weather History for Ottumwa, IA

Change the Weather History Date:

Saturday, October 11, 2014

  Actual Average Record
Temperature  
Mean Temperature 47 °F 54 °F  
Max Temperature 62 °F 65 °F 86 °F (1962)
Min Temperature 32 °F 43 °F 25 °F (1987)
Degree Days  
Heating Degree Days 18 11  
Month to date heating degree days 133 106  
Since 1 July heating degree days 267 227  
Cooling Degree Days 0 0  
Month to date cooling degree days 0 9  
Year to date cooling degree days 800 936  
Moisture  
Dew Point 35 °F    
Average Humidity 66    
Maximum Humidity 92    
Minimum Humidity 39    
Precipitation  
Precipitation 0.00 in 0.09 in 1.06 in (1984)
Month to date precipitation 1.20 1.05  
Year to date precipitation 36.33 31.54  
Sea Level Pressure  
Sea Level Pressure 30.18 in    
Wind  
Wind Speed 5 mph (East)    
Max Wind Speed 10 mph    
Max Gust Speed 12 mph    
Visibility 10 miles    
Events      
T = Trace of Precipitation, MM = Missing Value Source: NWS Daily Summary

Daily Weather History Graph

Daily Weather History Graph

Search for Another Location

Airport:

Trip Planner

Search our weather history database for the weather conditions in past years. The results will help you decide how hot, cold, wet, or windy it might be!

Date:

Astronomy

Oct. 11, 2014 Rise Set
Actual Time 7:17 AM CDT 6:35 PM CDT
Civil Twilight 6:49 AM CDT 7:02 PM CDT
Nautical Twilight 6:17 AM CDT 7:34 PM CDT
Astronomical Twilight 5:45 AM CDT 8:06 PM CDT
Moon 9:01 PM CDT (10/11) 10:42 AM CDT (10/11)
Length of Visible Light 12h 13m
Length of Day
11h 18m
Waning Gibbous, 87% of the Moon is Illuminated
Oct 11
Waning Gibbous
Oct 15
Last Quarter
Oct 23
New
Oct 30
First Quarter
Nov 6
Full

Hourly Weather History & Observations

Time (CDT) Temp. Windchill Dew Point Humidity Pressure Visibility Wind Dir Wind Speed Gust Speed Precip Events Conditions
12:53 AM 36.0 °F 30.3 °F 33.1 °F 89% 30.19 in 10.0 mi North 6.9 mph - N/A   Clear
1:53 AM 36.0 °F 30.3 °F 32.0 °F 86% 30.19 in 10.0 mi North 6.9 mph - N/A   Clear
2:53 AM 35.1 °F 31.0 °F 32.0 °F 89% 30.20 in 10.0 mi North 4.6 mph - N/A   Clear
3:53 AM 39.2 °F 33.6 °F 33.8 °F 81% 30.17 in 10.0 mi North 8.1 mph - N/A   Clear
4:53 AM 35.6 °F - 30.2 °F 81% 30.19 in 8.0 mi Calm Calm - N/A   Clear
5:53 AM 34.0 °F 31.0 °F 30.9 °F 89% 30.23 in 10.0 mi North 3.5 mph - N/A   Clear
6:53 AM 34.0 °F 29.8 °F 30.0 °F 85% 30.23 in 7.0 mi NNE 4.6 mph - N/A   Clear
7:53 AM 34.0 °F 31.0 °F 30.9 °F 89% 30.25 in 3.0 mi NNW 3.5 mph - N/A   Clear
8:53 AM 41.0 °F 39.0 °F 34.0 °F 76% 30.26 in 10.0 mi NNE 3.5 mph - N/A   Clear
9:53 AM 46.0 °F 44.8 °F 37.9 °F 73% 30.27 in 10.0 mi ENE 3.5 mph - N/A   Clear
10:53 AM 52.0 °F - 42.1 °F 69% 30.27 in 10.0 mi Variable 4.6 mph - N/A   Clear
11:53 AM 55.0 °F - 41.0 °F 59% 30.25 in 10.0 mi SE 6.9 mph - N/A   Clear
12:53 PM 57.0 °F - 39.9 °F 53% 30.22 in 10.0 mi North - - N/A   Clear
1:53 PM 57.9 °F - 35.1 °F 42% 30.19 in 10.0 mi East 3.5 mph - N/A   Clear
2:53 PM 60.1 °F - 36.0 °F 41% 30.17 in 10.0 mi SSE 6.9 mph - N/A   Clear
3:53 PM 60.8 °F - 37.4 °F 42% 30.14 in 10.0 mi Variable 3.5 mph - N/A   Clear
4:53 PM 60.1 °F - 35.1 °F 39% 30.13 in 10.0 mi SSE 5.8 mph - N/A   Clear
5:53 PM 55.9 °F - 36.0 °F 47% 30.13 in 10.0 mi ESE 5.8 mph - N/A   Clear
6:53 PM 48.9 °F - 35.1 °F 59% 30.13 in 10.0 mi ESE 4.6 mph - N/A   Clear
7:53 PM 48.9 °F - 34.0 °F 56% 30.13 in 10.0 mi ESE 4.6 mph - N/A   Clear
8:53 PM 43.0 °F 38.8 °F 34.0 °F 71% 30.12 in 10.0 mi ESE 6.9 mph - N/A   Clear
9:53 PM 42.1 °F 37.7 °F 34.0 °F 73% 30.11 in 10.0 mi SE 6.9 mph - N/A   Clear
10:53 PM 44.1 °F 40.1 °F 34.0 °F 68% 30.10 in 10.0 mi SE 6.9 mph - N/A   Clear
11:53 PM 45.0 °F 41.2 °F 36.0 °F 71% 30.08 in 10.0 mi SSE 6.9 mph - N/A   Clear